Time,TemperatureF,DewpointF,PressureIn,WindDirection,WindDirectionDegrees,WindSpeedMPH,WindSpeedGustMPH,Humidity,HourlyPrecipIn,Conditions,Clouds,dailyrainin,SoftwareType,DateUTC
2013-01-21 00:00:00,19.8,12.2,30.17,WNW,293,2.0,-999.0,72,0.00,,,0.00,Wunderground v.1.15,2013-01-21 05:00:00,
2013-01-21 00:05:00,19.8,12.2,30.17,WNW,293,2.0,-999.0,72,0.00,,,0.00,Wunderground v.1.15,2013-01-21 05:05:00,
2013-01-21 00:10:00,19.8,12.2,30.17,WNW,293,2.0,-999.0,72,0.00,,,0.00,Wunderground v.1.15,2013-01-21 05:10:00,
2013-01-21 00:15:00,20.0,12.4,30.17,WNW,293,4.0,-999.0,72,0.00,,,0.00,Wunderground v.1.15,2013-01-21 05:15:00,
2013-01-21 00:20:00,20.0,12.4,30.17,WNW,293,4.0,-999.0,72,0.00,,,0.00,Wunderground v.1.15,2013-01-21 05:20:00,
2013-01-21 00:25:00,20.2,12.3,30.17,WNW,293,6.0,-999.0,71,0.00,,,0.00,Wunderground v.1.15,2013-01-21 05:25:00,
2013-01-21 00:30:00,20.2,12.3,30.17,WNW,293,6.0,-999.0,71,0.00,,,0.00,Wunderground v.1.15,2013-01-21 05:30:00,
2013-01-21 00:35:00,20.2,11.7,30.17,West,270,8.0,-999.0,69,0.00,,,0.00,Wunderground v.1.15,2013-01-21 05:35:00,
2013-01-21 00:40:00,20.2,11.7,30.17,West,270,8.0,-999.0,69,0.00,,,0.00,Wunderground v.1.15,2013-01-21 05:40:00,
2013-01-21 00:45:00,20.1,11.6,30.16,West,270,8.0,-999.0,69,0.00,,,0.00,Wunderground v.1.15,2013-01-21 05:45:00,
2013-01-21 00:50:00,20.1,11.6,30.16,West,270,8.0,-999.0,69,0.00,,,0.00,Wunderground v.1.15,2013-01-21 05:50:00,
2013-01-21 00:55:00,20.0,11.1,30.15,West,270,9.0,-999.0,68,0.00,,,0.00,Wunderground v.1.15,2013-01-21 05:55:00,
2013-01-21 01:00:00,20.0,11.1,30.15,West,270,9.0,-999.0,68,0.00,,,0.00,Wunderground v.1.15,2013-01-21 06:00:00,
2013-01-21 01:05:00,19.9,11.0,30.15,West,270,10.0,-999.0,68,0.00,,,0.00,Wunderground v.1.15,2013-01-21 06:05:00,
2013-01-21 01:10:00,19.9,11.0,30.15,West,270,10.0,-999.0,68,0.00,,,0.00,Wunderground v.1.15,2013-01-21 06:10:00,
2013-01-21 01:15:00,19.8,10.9,30.14,West,270,9.0,-999.0,68,0.00,,,0.00,Wunderground v.1.15,2013-01-21 06:15:00,
2013-01-21 01:20:00,19.8,10.9,30.14,West,270,9.0,-999.0,68,0.00,,,0.00,Wunderground v.1.15,2013-01-21 06:20:00,
2013-01-21 01:25:00,19.8,11.3,30.14,West,270,8.0,-999.0,69,0.00,,,0.00,Wunderground v.1.15,2013-01-21 06:25:00,
2013-01-21 01:30:00,19.8,11.3,30.14,West,270,8.0,-999.0,69,0.00,,,0.00,Wunderground v.1.15,2013-01-21 06:30:00,
2013-01-21 01:35:00,19.7,11.8,30.14,West,270,8.0,-999.0,71,0.00,,,0.00,Wunderground v.1.15,2013-01-21 06:35:00,
2013-01-21 01:40:00,19.7,11.8,30.14,West,270,8.0,-999.0,71,0.00,,,0.00,Wunderground v.1.15,2013-01-21 06:40:00,
2013-01-21 01:45:00,19.6,11.7,30.14,West,270,7.0,-999.0,71,0.00,,,0.00,Wunderground v.1.15,2013-01-21 06:45:00,
2013-01-21 01:50:00,19.6,11.7,30.14,West,270,7.0,-999.0,71,0.00,,,0.00,Wunderground v.1.15,2013-01-21 06:50:00,
2013-01-21 01:55:00,19.5,11.6,30.14,West,270,9.0,-999.0,71,0.00,,,0.00,Wunderground v.1.15,2013-01-21 06:55:00,
2013-01-21 02:00:00,19.5,11.6,30.14,West,270,9.0,-999.0,71,0.00,,,0.00,Wunderground v.1.15,2013-01-21 07:00:00,
2013-01-21 02:05:00,19.4,11.8,30.15,WNW,293,7.0,-999.0,72,0.00,,,0.00,Wunderground v.1.15,2013-01-21 07:05:00,
2013-01-21 02:10:00,19.4,11.8,30.15,WNW,293,7.0,-999.0,72,0.00,,,0.00,Wunderground v.1.15,2013-01-21 07:10:00,
2013-01-21 02:15:00,19.3,11.4,30.15,West,270,9.0,-999.0,71,0.00,,,0.00,Wunderground v.1.15,2013-01-21 07:15:00,
2013-01-21 02:20:00,19.3,11.4,30.15,West,270,9.0,-999.0,71,0.00,,,0.00,Wunderground v.1.15,2013-01-21 07:20:00,
2013-01-21 02:25:00,19.1,10.9,30.15,WNW,293,10.0,-999.0,70,0.00,,,0.00,Wunderground v.1.15,2013-01-21 07:25:00,
2013-01-21 02:30:00,19.1,10.9,30.15,WNW,293,10.0,-999.0,70,0.00,,,0.00,Wunderground v.1.15,2013-01-21 07:30:00,
2013-01-21 02:35:00,18.9,10.4,30.15,WNW,293,9.0,-999.0,69,0.00,,,0.00,Wunderground v.1.15,2013-01-21 07:35:00,
2013-01-21 02:40:00,18.9,10.4,30.15,WNW,293,9.0,-999.0,69,0.00,,,0.00,Wunderground v.1.15,2013-01-21 07:40:00,
2013-01-21 02:45:00,18.8,10.0,30.15,West,270,11.0,-999.0,68,0.00,,,0.00,Wunderground v.1.15,2013-01-21 07:45:00,
2013-01-21 02:50:00,18.8,10.0,30.15,West,270,11.0,-999.0,68,0.00,,,0.00,Wunderground v.1.15,2013-01-21 07:50:00,
2013-01-21 02:55:00,18.8,10.6,30.15,West,270,10.0,-999.0,70,0.00,,,0.00,Wunderground v.1.15,2013-01-21 07:55:00,
2013-01-21 03:00:00,18.8,10.6,30.15,West,270,10.0,-999.0,70,0.00,,,0.00,Wunderground v.1.15,2013-01-21 08:00:00,
2013-01-21 03:05:00,18.6,10.1,30.15,West,270,10.0,-999.0,69,0.00,,,0.00,Wunderground v.1.15,2013-01-21 08:05:00,
2013-01-21 03:10:00,18.6,10.1,30.15,West,270,10.0,-999.0,69,0.00,,,0.00,Wunderground v.1.15,2013-01-21 08:10:00,
2013-01-21 03:15:00,18.5,10.3,30.15,West,270,8.0,-999.0,70,0.00,,,0.00,Wunderground v.1.15,2013-01-21 08:15:00,
2013-01-21 03:20:00,18.5,10.3,30.15,West,270,8.0,-999.0,70,0.00,,,0.00,Wunderground v.1.15,2013-01-21 08:20:00,
2013-01-21 03:25:00,18.3,10.1,30.14,West,270,8.0,-999.0,70,0.00,,,0.00,Wunderground v.1.15,2013-01-21 08:25:00,
2013-01-21 03:30:00,18.3,10.1,30.14,West,270,8.0,-999.0,70,0.00,,,0.00,Wunderground v.1.15,2013-01-21 08:30:00,
2013-01-21 03:35:00,18.0,10.2,30.14,West,270,9.0,-999.0,71,0.00,,,0.00,Wunderground v.1.15,2013-01-21 08:35:00,